Regional Weather Roundup
Issued by NWS

Home | Current Version | Previous Version | Graphics & Text | Print | Product List | Glossary On
Versions: 1 2 3 4 5 6 7 8 9 10 11 12 13 14 15 16 17 18 19 20 21 22 23 24 25 26 27 28 29 30 31 32 33 34 35 36 37 38 39 40 41 42 43 44 45 46 47 48 49 50
000
ASUS45 KBOI 141910
RWRID

IDAHO REGIONAL WEATHER ROUNDUP
NATIONAL WEATHER SERVICE BOISE ID
1200 PM MST THU DEC 14 2017

NOTE: "FAIR" INDICATES FEW OR NO CLOUDS BELOW 12000 FEET
WITH NO SIGNIFICANT WEATHER AND/OR OBSTRUCTIONS TO VISIBILITY

IDZ012-014-142000-
SOUTHWEST IDAHO


CITY           SKY/WX    TMP DP  RH WIND       PRES   REMARKS
BOISE          CLOUDY    26  21  81 SE7       30.57F WCI  18
CALDWELL         N/A     27  24  89 E7        30.60  WCI  19
MOUNTAIN HOME  CLOUDY    27  27 100 SE6       30.55F FOG     WCI  20
$$

IDZ016-017-142000-
SOUTHCENTRAL IDAHO


CITY           SKY/WX    TMP DP  RH WIND       PRES   REMARKS
BURLEY         CLOUDY    24  22  91 CALM      30.48F FOG
JEROME         HAZE      27  22  81 E7        30.50F VSB 1/2 WCI  19
TWIN FALLS     FOG       22  21  96 E5        30.49F VSB 1/2 WCI  16
$$

IDZ019>023-142000-
SOUTHEAST IDAHO


CITY           SKY/WX    TMP DP  RH WIND       PRES   REMARKS
IDAHO FALLS    CLOUDY    23  22  96 CALM      30.48F FOG
POCATELLO      CLOUDY    23  21  92 CALM      30.50F FOG
REXBURG        CLOUDY    20  19  96 CALM      30.44F FOG
$$

IDZ006-010-011-018-031-032-142000-
CENTRAL IDAHO MOUNTAINS


CITY           SKY/WX    TMP DP  RH WIND       PRES   REMARKS
MCCALL         SUNNY     25  21  85 CALM      30.41F
HAILEY         MOSUNNY   34  21  60 CALM      30.43F
STANLEY          N/A     23  17  78 CALM      30.46F
SALMON         CLOUDY    31  24  75 CALM      30.51F
CHALLIS        CLOUDY    26  22  84 CALM      30.47F
$$

IDZ002-004-006-007-026-142000-
NORTHERN IDAHO


CITY           SKY/WX    TMP DP  RH WIND       PRES   REMARKS
LEWISTON       CLOUDY    34  28  79 E10       30.53F WCI  26
LOWELL           N/A     35  32  88 CALM      30.53F
COEUR D`ALENE  CLOUDY    32  27  81 N7        30.50F WCI  26
MULLAN PASS    MOSUNNY   27  23  85 NW3       30.33F
$$



USA.gov is the U.S. government's official web portal to all federal, state and local government web resources and services.